G7GFU-13 Weather Reports


time (UTC)temp
F
wind
direction
speed
knots
gust
knots
rain 1hr
in
rain 24hr
in
rain mn
in
humidity
%
barometer
mb
20260506031803 44 358 0.9 4.3 0.00 0.00 0.00 76 1015.9
20260506030903 44 9 0.9 1.7 0.00 0.00 0.00 77 1015.9
20260506030003 44 17 0.9 3.5 0.00 0.00 0.00 77 1015.9
20260506025403 44 54 0.9 2.6 0.00 0.00 0.00 76 1015.9
20260506024503 45 19 0.9 3.5 0.00 0.00 0.00 76 1015.9
20260506023603 45 3 0.9 2.6 0.00 0.00 0.00 76 1015.9
20260506022703 45 11 0.9 3.5 0.00 0.00 0.00 76 1015.8
20260506021803 44 110 0.0 3.5 0.00 0.00 0.00 80 1015.8
20260506020903 45 68 0.0 0.9 0.00 0.00 0.00 80 1015.8
20260506020217 45 51 0.9 3.5 0.00 0.00 0.00 81 1015.8
20260506015403 45 73 0.0 2.6 0.00 0.00 0.00 80 1015.8
20260506014503 45 108 0.9 4.3 0.00 0.00 0.00 77 1015.8
20260506013603 45 20 1.7 4.3 0.00 0.00 0.00 76 1015.8
20260506012703 46 13 0.9 6.1 0.00 0.00 0.00 74 1015.9
20260506012018 46 357 0.9 4.3 0.00 0.00 0.00 74 1015.9
20260506010903 46 20 0.9 2.6 0.00 0.00 0.00 74 1016.0
20260506010003 46 111 0.0 3.5 0.00 0.00 0.00 74 1016.0
20260506005403 46 55 0.9 1.7 0.00 0.00 0.00 73 1016.0
20260506004503 46 25 0.9 2.6 0.00 0.00 0.00 73 1016.0
20260506003817 46 26 0.9 3.5 0.00 0.00 0.00 73 1016.0
20260506002703 46 23 1.7 7.0 0.00 0.00 0.00 73 1016.0
20260506001803 46 40 1.7 3.5 0.00 0.00 0.00 73 1015.9
20260506001117 46 63 1.7 6.1 0.00 0.00 0.00 73 1015.9
20260506000003 46 26 0.9 4.3 0.00 0.00 0.00 75 1015.9
20260505235403 46 33 0.9 3.5 0.00 0.00 0.00 75 1015.9
20260505234717 46 84 1.7 3.5 0.00 0.00 0.00 75 1015.9
20260505233604 46 29 0.9 5.2 0.00 0.00 0.00 75 1015.9
20260505232703 46 13 0.9 3.5 0.00 0.00 0.00 76 1015.9
20260505231803 46 8 0.9 2.6 0.00 0.00 0.00 76 1016.0
20260505231117 46 8 0.0 2.6 0.00 0.00 0.00 76 1016.0
20260505230003 46 24 1.7 3.5 0.00 0.00 0.00 75 1015.9
20260505225403 46 17 1.7 3.5 0.00 0.00 0.00 75 1016.0
20260505224503 46 11 1.7 5.2 0.00 0.00 0.00 74 1016.0
20260505223603 46 16 0.9 3.5 0.00 0.00 0.00 74 1016.1
20260505222917 46 9 0.9 3.5 0.00 0.00 0.00 74 1016.0
20260505222017 46 33 0.9 2.6 0.00 0.00 0.00 73 1016.0
20260505220903 47 12 1.7 4.3 0.00 0.00 0.00 72 1015.9
20260505220003 47 12 1.7 5.2 0.00 0.00 0.00 72 1015.9
20260505215403 47 1 1.7 7.0 0.00 0.00 0.00 72 1015.9
20260505214716 47 7 1.7 4.3 0.00 0.00 0.00 71 1015.9
20260505213818 47 5 1.7 7.8 0.00 0.00 0.00 70 1015.8
20260505212703 48 345 2.6 7.0 0.00 0.00 0.00 70 1015.8
20260505211803 48 23 2.6 6.1 0.00 0.00 0.00 70 1015.8
20260505210904 48 10 2.6 7.0 0.00 0.00 0.00 69 1015.7
20260505210003 48 11 2.6 7.0 0.00 0.00 0.00 70 1015.7
20260505205403 48 56 3.5 8.7 0.00 0.00 0.00 70 1015.6
20260505204503 49 12 2.6 6.1 0.00 0.00 0.00 72 1015.6
20260505203603 49 10 2.6 6.1 0.00 0.00 0.00 73 1015.6
20260505202703 49 7 3.5 7.8 0.00 0.00 0.00 73 1015.5
20260505201803 49 7 1.7 5.2 0.00 0.00 0.00 73 1015.4
20260505200903 50 11 2.6 5.2 0.00 0.00 0.00 73 1015.3
20260505200003 50 25 1.7 7.0 0.00 0.00 0.00 73 1015.3
20260505195403 50 58 1.7 5.2 0.00 0.00 0.00 72 1015.2
20260505194503 50 12 2.6 7.0 0.00 0.00 0.00 72 1015.1
20260505193603 50 9 2.6 6.1 0.00 0.00 0.00 72 1015.0
20260505192916 51 27 1.7 7.0 0.00 0.00 0.00 72 1014.9
20260505191803 51 359 1.7 5.2 0.00 0.00 0.00 73 1014.9
20260505191117 51 4 1.7 3.5 0.00 0.00 0.00 72 1014.8
20260505190216 51 336 1.7 4.3 0.00 0.00 0.00 71 1014.8
20260505185403 52 340 2.6 6.1 0.00 0.00 0.00 70 1014.8
20260505184503 52 325 2.6 3.5 0.00 0.00 0.00 71 1014.8
20260505183603 52 322 1.7 3.5 0.00 0.00 0.00 70 1014.8
20260505182703 52 315 2.6 10.4 0.00 0.00 0.00 69 1014.7
20260505181803 52 324 2.6 7.0 0.00 0.00 0.00 67 1014.7
20260505180903 53 313 2.6 7.8 0.00 0.00 0.00 67 1014.7
20260505180003 53 309 1.7 6.1 0.00 0.00 0.00 67 1014.7
20260505175403 54 323 1.7 4.3 0.00 0.00 0.00 66 1014.7
20260505174503 54 321 2.6 5.2 0.00 0.00 0.00 65 1014.7
20260505173816 54 326 2.6 6.1 0.00 0.00 0.00 66 1014.7
20260505172703 55 311 1.7 7.0 0.00 0.00 0.00 65 1014.7
20260505171803 55 326 0.9 6.1 0.00 0.00 0.00 67 1014.7
20260505170903 54 316 1.7 6.1 0.00 0.00 0.00 67 1014.7
20260505170003 54 311 1.7 3.5 0.00 0.00 0.00 67 1014.7
20260505165403 54 315 1.7 3.5 0.00 0.00 0.00 67 1014.7
20260505164503 55 316 1.7 6.1 0.00 0.00 0.00 64 1014.6
20260505163603 56 313 1.7 6.1 0.00 0.00 0.00 64 1014.6
20260505162703 57 311 1.7 4.3 0.00 0.00 0.00 62 1014.6
20260505161803 56 316 1.7 6.1 0.00 0.00 0.00 62 1014.6
20260505160903 56 314 1.7 6.1 0.00 0.00 0.00 62 1014.6
20260505152703 56 324 1.7 2.6 0.00 0.00 0.00 61 1014.7
20260505151803 56 310 1.7 4.3 0.00 0.00 0.00 61 1014.7
20260505150903 56 317 0.9 3.5 0.00 0.00 0.00 61 1014.8
20260505140216 55 319 1.7 5.2 0.00 0.00 0.00 64 1014.8
20260505124503 53 341 2.6 6.1 0.00 0.00 0.00 72 1015.0
20260505123816 53 318 2.6 5.2 0.00 0.00 0.00 72 1015.0
20260505122703 54 327 1.7 3.5 0.00 0.00 0.00 72 1015.0
20260505121803 53 309 1.7 5.2 0.00 0.00 0.00 74 1015.0
20260505120903 53 317 1.7 5.2 0.00 0.00 0.00 74 1015.1
20260505120003 52 349 1.7 3.5 0.00 0.00 0.00 78 1015.1
20260505115403 52 346 1.7 5.2 0.00 0.00 0.00 77 1015.2
20260505114503 51 347 1.7 4.3 0.00 0.00 0.00 79 1015.3
20260505113603 50 360 2.6 3.5 0.00 0.00 0.00 80 1015.3
20260505112703 50 331 3.5 7.8 0.00 0.00 0.00 77 1015.3
20260505111803 52 347 3.5 9.6 0.00 0.00 0.00 73 1015.2
20260505110903 54 326 3.5 7.0 0.00 0.00 0.00 66 1015.1
20260505110217 57 349 2.6 5.2 0.00 0.00 0.00 62 1015.1
20260505101803 51 357 1.7 6.1 0.00 0.00 0.00 77 1015.4
20260505100903 51 320 1.7 5.2 0.00 0.00 0.00 79 1015.4
20260505100003 51 315 2.6 7.8 0.00 0.00 0.00 78 1015.3
20260505095403 52 315 1.7 6.1 0.00 0.00 0.00 72 1015.3
20260505094718 53 323 1.7 5.2 0.00 0.00 0.00 70 1015.3
20260505093603 54 354 1.7 2.6 0.00 0.00 0.00 69 1015.3
20260505092703 53 314 2.6 7.0 0.00 0.00 0.00 70 1015.3
20260505091803 53 319 2.6 5.2 0.00 0.00 0.00 72 1015.3
20260505090903 52 346 2.6 6.1 0.00 0.00 0.00 72 1015.3
20260505090003 53 349 1.7 4.3 0.00 0.00 0.00 75 1015.4
20260505085403 52 341 1.7 3.5 0.00 0.00 0.00 80 1015.4
20260505084503 51 343 2.6 5.2 0.00 0.00 0.00 82 1015.4
20260505083603 51 323 2.6 7.8 0.00 0.00 0.00 80 1015.5
20260505082703 52 329 2.6 5.2 0.00 0.00 0.00 77 1015.4
20260505081803 54 336 1.7 3.5 0.00 0.00 0.00 78 1015.5
20260505081117 53 338 1.7 4.3 0.00 0.00 0.00 80 1015.5
20260505080003 52 337 0.9 4.3 0.00 0.00 0.00 81 1015.5
20260505075403 51 321 0.9 5.2 0.00 0.00 0.00 82 1015.5
20260505074503 50 318 0.9 3.5 0.00 0.00 0.00 83 1015.5
20260505073603 50 349 0.0 1.7 0.00 0.00 0.00 84 1015.5
20260505072703 50 349 0.0 0.9 0.00 0.00 0.00 84 1015.5
20260505071803 49 349 0.0 1.7 0.00 0.00 0.00 83 1015.5
20260505070903 49 357 0.9 2.6 0.00 0.00 0.00 83 1015.5
20260505070003 49 334 0.9 3.5 0.00 0.00 0.00 82 1015.5
20260505065403 49 360 0.9 2.6 0.00 0.00 0.00 82 1015.6
20260505064503 49 360 0.9 2.6 0.00 0.00 0.00 82 1015.7
20260505063603 49 360 0.9 2.6 0.00 0.00 0.00 82 1015.6
20260505062703 49 360 0.9 0.9 0.00 0.00 0.00 83 1015.7
20260505061803 48 320 0.9 2.6 0.00 0.00 0.00 83 1015.6
20260505060903 48 306 0.0 0.9 0.00 0.00 0.00 84 1015.6
20260505060003 48 0 0.0 0.0 0.00 0.00 0.00 85 1015.5
20260505055617 48 0 0.0 0.0 0.00 0.00 0.00 85 1015.5
20260505054503 47 306 0.0 1.7 0.00 0.00 0.00 85 1015.4
20260505053603 47 306 0.0 1.7 0.00 0.00 0.00 88 1015.4
20260505052703 44 0 0.0 1.7 0.00 0.00 0.00 90 1015.4
20260505052016 44 306 0.0 0.9 0.00 0.00 0.00 91 1015.3
20260505050903 43 0 0.0 1.7 0.00 0.00 0.00 91 1015.3
20260505050217 43 306 0.0 0.9 0.00 0.00 0.00 91 1015.2
20260505040904 44 312 0.0 2.6 0.00 0.00 0.00 92 1015.1
20260505040003 43 316 0.0 0.9 0.00 0.00 0.00 92 1015.1
20260505035403 44 316 0.0 1.7 0.00 0.00 0.00 92 1015.1
20260505034718 44 320 0.0 2.6 0.00 0.00 0.00 92 1015.1
20260505033817 44 0 0.0 1.7 0.00 0.00 0.00 92 1015.1
20260505032703 44 320 0.0 0.9 0.00 0.00 0.00 92 1015.2